This demonstration page uses our WeatherBlox Daily Observations layout. Learn more.

Left ArrowRight Arrow

38.89511, -77.03637

Hourly Observations for July 7, 2018

Temp ( °F °C ) Dew Point ( °F °C ) Humidity (%) Winds ( mph kmh ) Pressure ( in mb ) Visibility ( mi km ) Precip ( " mm )
12:52 am 00:52 Cloudy 79 26.1 60 15.6 52 52 NNE 14 22 30.16 1021 10 16 0.00 0.00
1:52 am 01:52 Cloudy 77 25 59 15 54 54 NNE 15 24 30.18 1022 10 16 0.00 0.00
2:52 am 02:52 Cloudy 75 23.9 57 13.9 54 54 NE 18 30 30.19 1023 10 16 0.00 0.00
3:52 am 03:52 Cloudy 73 22.8 54 12.2 51 51 NNE 15 24 30.22 1023 10 16 0.00 0.00
4:52 am 04:52 Mostly Cloudy 70 21.1 51 10.6 51 51 NNE 18 30 30.24 1024 10 16 0.00 0.00
5:52 am 05:52 Mostly Cloudy 69 20.6 49 9.4 49 49 NE 18 30 30.27 1025 10 16 0.00 0.00
6:52 am 06:52 Mostly Cloudy 69 20.6 48 8.9 47 47 NNE 15 24 30.30 1026 10 16 0.00 0.00
7:52 am 07:52 Partly Cloudy 70 21.1 49 9.4 47 47 NNE 13 20 30.32 1027 10 16 0.00 0.00
8:52 am 08:52 Partly Cloudy 70 21.1 50 10 49 49 NNE 16 26 30.32 1027 10 16 0.00 0.00
9:52 am 09:52 Partly Cloudy 72 22.2 53 11.7 52 52 NE 15 24 30.32 1027 10 16 0.00 0.00
10:52 am 10:52 Partly Cloudy 74 23.3 53 11.7 48 48 NE 15 24 30.34 1027 10 16 0.00 0.00
11:52 am 11:52 Partly Cloudy 76 24.4 53 11.7 45 45 NNE 10 17 30.34 1027 10 16 0.00 0.00
12:52 pm 12:52 Mostly Cloudy 78 25.6 54 12.2 43 43 NNE 12 19 30.33 1027 10 16 0.00 0.00
1:52 pm 13:52 Partly Cloudy 79 26.1 53 11.7 41 41 E 5 7 30.32 1027 10 16 0.00 0.00
2:52 pm 14:52 Partly Cloudy 80 26.7 53 11.7 39 39 NE 5 7 30.31 1026 10 16 0.00 0.00
3:52 pm 15:52 Partly Cloudy 82 27.8 52 11.1 35 35 NE 6 9 30.29 1026 10 16 0.00 0.00
4:52 pm 16:52 Partly Cloudy 81 27.2 52 11.1 37 37 E 8 13 30.27 1025 10 16 0.00 0.00
5:52 pm 17:52 Partly Cloudy 81 27.2 50 10 34 34 ENE 7 11 30.25 1025 10 16 0.00 0.00
6:52 pm 18:52 Partly Cloudy 79 26.1 52 11.1 39 39 E 14 22 30.26 1025 10 16 0.00 0.00
7:52 pm 19:52 Partly Cloudy 77 25 52 11.1 42 42 ENE 10 17 30.27 1025 10 16 0.00 0.00
8:52 pm 20:52 Mostly Clear 75 23.9 51 10.6 43 43 E 6 9 30.28 1026 10 16 0.00 0.00
9:52 pm 21:52 Clear 75 23.9 51 10.6 43 43 E 6 9 30.30 1026 10 16 0.00 0.00
10:52 pm 22:52 Clear 72 22.2 58 14.4 61 61 SE 15 24 30.32 1027 10 16 0.00 0.00
11:52 pm 23:52 Clear 70 21.1 56 13.3 61 61 ESE 9 15 30.33 1027 10 16 0.00 0.00

Powered by AerisWeather